Terminal Aerodrome Forecast
Issued by NWS

Current Version | Previous Version | Graphics & Text | Print | Product List | Glossary On
Versions: 1 2 3 4 5 6 7 8 9 10 11 12 13 14 15 16 17 18 19 20
186
FTUS41 KPBZ 082320
TAFHLG
TAF
KHLG 082320Z 0900/0924 27015G20KT P6SM OVC035
     FM090900 26012G22KT P6SM OVC025=

USA.gov is the U.S. government's official web portal to all federal, state and local government web resources and services.